Volver al catálogo

OPS 4682 DEB

ActivoPO
NORAD 18691·DEBRIS·🇺🇸 United States

Lanzado Apr 3, 1965 desde Vandenberg Space Force Base

Loading…

Próximos Pases (próximas 24 horas)

TLE

ActualizadoSource: Space-Track

Época: Sep 13, 2026, 12:54 UTC

1 18691U 65027AJ  26256.53756360  .00000012  00000-0  15503-4 0  9992
2 18691  90.2303 358.5828 0025167 228.9716 143.4903 12.96788654836545

Sigue OPS 4682 DEB en tiempo real con AllMySat

Download on the App Store